Tracking 19795 objects as of 18-Jul-2019
HD Live streaming from Space Station
objects crossing your sky now

COSMOS 1694

Track COSMOS 1694 now!
10-day predictions
COSMOS 1694 is classified as:


NORAD ID: 16142
Int'l Code: 1985-094E
Perigee: 1,405.3 km
Apogee: 1,424.6 km
Inclination: 82.6 °
Period: 114.0 minutes
Semi major axis: 7785 km
RCS: 0.2341 m2 (medium)
Launch date: October 9, 1985
Source: Commonwealth of Independent States (former USSR) (CIS)
Launch site: PLESETSK MISSILE AND SPACE COMPLEX (PKMTR)
aabbcc
Your satellite tracking list
Your tracking list is empty




NASA's NSSDC Master Catalog

Two Line Element Set (TLE):
1 16142U 85094E   19198.61252670  .00000032  00000-0  11870-3 0  9992
2 16142  82.6083  71.8755 0012393  54.5276 333.7679 12.63677209557797
Source of the keplerian elements: AFSPC